Regional Weather Roundup
Issued by NWS State College, PA

Current Version | Previous Version | Text Only | Print | Product List | Glossary On
Versions: 1 2 3 4 5 6 7 8 9 10 11 12 13 14 15 16 17 18 19 20 21 22 23 24 25 26 27 28 29 30 31 32 33 34 35 36 37 38 39 40 41 42 43 44 45 46 47 48 49 50
000
ASUS41 KCTP 130310
RWRCTP

REGIONAL WEATHER ROUNDUP
NATIONAL WEATHER SERVICE STATE COLLEGE PA
1000 PM EST WED DEC 12 2018

Note: "fair" indicates few or no clouds below 12,000 feet with no
significant weather and/or obstructions to visibility.

* = STATION THAT DOES NOT REPORT PRECIPITATION /E.G. RAIN...SNOW...ETC/
    THUNDER OR FOG.

PAZ002>004-007>009-013>016-020>023-029>032-130400-
WESTERN PENNSYLVANIA

CITY           SKY/WX    TMP DP  RH WIND       PRES   REMARKS
ERIE           CLOUDY    38  26  62 S10       29.98S
MEADVILLE      CLOUDY    35  26  69 VRB3      29.97S
FRANKLIN*      CLOUDY    33  26  75 SE5       29.98S
NEW CASTLE     MOCLDY    35  24  64 W3        29.99S
BEAVER COUNTY  NOT AVBL
BUTLER*        CLOUDY    38  26  62 S5        29.99S
PITTSBURGH INT MOCLDY    41  25  53 SW10      29.99S
PITTSBURGH     CLOUDY    39  26  59 SW8       29.99R
INDIANA*       CLOUDY    39  27  60 S5        30.05R
LATROBE        CLOUDY    45  27  49 S7        30.01S
WASHINGTON CO* MOCLDY    43  26  51 SW8       30.03R
$$

PAZ004>006-010>012-017>019-024>028-033>037-041-042-045-046-049>053-130400-
CENTRAL PENNSYLVANIA

CITY           SKY/WX    TMP DP  RH WIND       PRES   REMARKS
BRADFORD       CLOUDY    29  22  75 SE8       29.99S
DUBOIS         CLOUDY    32  23  69 SE9       29.99S
CLEARFIELD     CLOUDY    31  24  75 N5        30.05S
JOHNSTOWN      CLOUDY    33  24  69 SE6       30.00S
ALTOONA        CLOUDY    35  24  64 S8        30.06F
STATE COLLEGE  CLEAR     32  23  69 CALM      30.08S
WILLIAMSPORT   FAIR      33  23  66 E10       30.14F
SELINSGROVE    FAIR      29  24  82 CALM      30.16S
FT INDIANTOWN  CLOUDY    33  23  67 CALM      30.19R
CAPITAL CITY   FAIR      34  25  69 E7        30.18R
HARRISBURG     CLOUDY    32  23  69 SE5       30.18R
YORK           FAIR      29  25  85 SE7       30.17R
$$

PAZ038>040-043-044-047-048-054-055-060>062-067>071-130400-
EASTERN PENNSYLVANIA

CITY           SKY/WX    TMP DP  RH WIND       PRES   REMARKS
SCRANTON       FAIR      31  20  63 SE7       30.16R
MOUNT POCONO   FAIR      25  22  88 E6        30.12F
ALLENTOWN      FAIR      32  22  66 CALM      30.22R
QUAKERTOWN*    CLEAR     28  23  80 CALM      30.22R
READING        FAIR      31  26  82 CALM      30.20R
LANCASTER      CLOUDY    33  25  72 E5        30.20S
COATESVILLE    FAIR      32  23  69 CALM      30.22R
POTTSTOWN      FAIR      30  23  75 CALM      30.22R
BLUE BELL      FAIR      30  27  86 CALM      30.24R
DOYLESTOWN     FAIR      32  22  66 CALM      30.20F
WILLOW GROVE   NOT AVBL
NORTH PHILA    FAIR      34  24  67 E7        30.24S
PHILADELPHIA   CLOUDY    36  24  62 S3        30.24R
$$



USA.gov is the U.S. government's official web portal to all federal, state and local government web resources and services.